Temperature
26 25 24 23 22 22 21 21 20 20 20 20 20 20 20 20 20 20 20 20 19 19 19 19 19 19 19 19 19 19 19 19 19 19 19 19 19 19 19 18 18 18 18
26 25 24 24 23 22 21 21 21 20 20 20 20 20 20 20 20 20 20 19 19 19 19 19 19 19 19 19 19 19 19 19 19 19 18 19 19 19 19 19 19 18 18
26 25 24 24 23 22 21 21 21 20 20 20 20 20 20 20 20 20 20 19 19 19 19 19 19 19 19 19 19 19 19 19 19 19 19 18 19 19 19 19 18 18 18
27 25 25 24 23 23 22 21 21 21 20 20 20 20 20 20 20 20 20 20 19 19 19 19 19 19 19 19 19 19 19 19 19 19 19 19 18 18 18 18 19 18 18
27 26 25 24 24 23 22 21 21 21 20 20 20 20 20 20 20 20 20 20 20 19 19 19 19 19 19 19 19 19 19 19 18 18 18 18 18 18 18 18 18 18 18
28 27 26 25 24 23 23 22 21 21 20 20 20 20 20 20 20 20 20 20 20 19 19 19 19 19 19 19 19 19 19 19 18 18 18 18 18 18 18 18 18 18 18
28 27 26 25 24 24 23 22 21 21 20 20 20 20 20 20 20 20 20 20 20 20 19 19 19 19 19 19 18 18 18 18 18 18 18 18 18 18 18 18 18 18 18
29 27 26 25 24 24 23 22 21 21 21 20 20 20 20 20 19 19 19 19 19 19 19 19 19 19 19 18 18 18 18 18 18 18 18 18 18 18 18 18 18 18 17
29 27 26 25 25 24 23 22 21 21 20 20 20 20 20 19 19 19 19 19 19 19 19 19 19 19 19 18 18 18 18 18 18 18 18 18 18 18 18 18 18 17 17
28 27 27 26 25 24 23 22 21 21 20 20 20 20 20 19 19 19 19 19 19 19 19 19 18 18 18 18 18 18 18 18 18 18 18 18 18 18 18 18 18 17 17
28 28 27 26 25 24 23 22 21 21 20 20 20 20 19 19 19 19 19 19 19 19 19 18 18 18 18 18 18 18 18 18 18 17 17 17 18 18 18 18 17 17 17
28 27 26 25 25 24 23 22 21 21 20 20 20 20 19 19 19 19 19 18 18 18 18 18 18 18 18 18 18 18 17 17 17 17 17 17 17 17 17 17 17 17 17
28 27 26 25 24 24 23 22 22 21 20 20 20 19 19 19 19 19 18 18 18 18 18 18 18 18 18 18 18 17 17 17 17 17 17 17 17 17 17 17 17 17 17
27 26 25 24 24 23 23 22 21 21 20 20 19 19 19 19 18 18 18 18 18 18 18 18 18 18 18 18 18 17 17 17 17 17 17 17 17 17 17 17 17 17 16
26 26 25 24 23 23 22 22 21 21 20 20 19 19 19 18 18 18 18 18 18 18 18 18 18 17 17 17 17 17 17 17 17 17 17 17 17 17 17 16 16 16 16
25 25 24 23 23 22 22 21 21 20 20 19 19 19 19 18 18 18 18 18 18 18 18 18 17 17 17 17 17 17 17 17 17 17 17 16 16 16 16 16 16 16 16
25 24 23 23 22 22 21 21 20 20 20 19 19 19 18 18 18 18 17 18 18 18 18 17 17 17 17 17 17 17 17 17 16 16 16 16 16 16 16 16 16 16 15
24 23 23 22 22 21 21 21 20 20 19 19 18 18 18 18 18 17 17 18 18 17 17 17 17 17 17 17 17 17 16 16 16 16 16 16 16 16 16 15 15 15 15
23 23 22 22 21 21 20 20 20 19 19 19 18 18 18 18 17 17 17 17 17 17 17 17 17 16 17 17 16 16 16 16 16 16 16 15 15 15 15 15 15 15 15
23 22 22 21 21 20 20 20 19 19 19 19 18 18 18 18 17 17 17 17 17 17 16 16 16 16 16 16 16 16 16 15 15 15 15 15 15 15 15 14 14 14 14
22 21 21 20 20 20 20 19 19 19 19 18 18 18 18 18 17 17 17 17 17 17 16 16 16 16 16 16 16 16 15 15 15 15 15 15 15 15 14 14 14 14 14
21 21 20 20 20 20 19 19 19 18 18 18 18 17 17 17 17 17 17 17 16 16 16 16 16 16 16 16 16 15 15 15 15 15 15 14 14 14 14 14 14 14 13
20 20 20 20 19 19 19 19 18 18 18 18 17 17 17 16 16 16 16 16 16 16 16 16 16 15 15 16 15 15 15 15 14 14 14 14 14 14 14 13 13 13 13
20 19 19 19 18 18 18 18 18 18 18 17 17 16 16 16 16 16 16 16 16 16 16 15 15 15 15 15 15 15 14 14 14 14 14 13 13 13 13 13 13 13 13
19 18 18 18 18 17 17 17 17 17 17 16 16 16 16 16 16 16 16 16 16 15 15 15 15 14 14 14 14 14 14 14 13 13 13 13 13 12 12 12 12 12 12
18 17 17 17 17 17 17 17 17 17 16 16 16 15 15 15 15 15 15 15 15 15 15 15 14 14 14 14 14 14 14 13 13 13 12 12 12 12 12 12 12 12 12
Wind_Speed
12 11 9 10 10 9 8 6 5 4 3 2 1 2 2 2 2 3 4 3 3 2 1 0 1 1 1 2 1 1 1 2 1 1 1 2 3 3 3 3 2 3 5
11 10 9 10 10 9 8 7 5 5 4 3 2 2 2 1 2 3 3 3 2 2 2 1 1 1 1 2 1 1 1 2 1 1 1 1 1 1 2 3 3 3 3
13 12 11 10 10 10 9 7 6 6 4 3 3 2 2 1 1 3 3 2 2 2 0 1 1 0 1 2 2 2 2 2 2 1 1 1 1 2 1 1 1 2 3
12 13 12 11 11 11 10 8 7 6 4 3 2 3 3 2 2 2 2 2 2 2 1 1 0 1 0 1 2 2 2 3 3 2 1 1 1 1 1 2 1 3 3
13 13 12 11 11 11 10 9 8 6 5 4 3 2 1 1 1 1 3 2 3 2 1 1 1 1 1 1 1 0 2 2 3 2 2 1 1 2 2 2 2 2 2
12 13 13 11 10 10 10 10 9 7 5 4 3 2 2 1 1 1 2 2 2 2 2 2 1 1 1 1 1 1 2 2 3 3 2 2 1 2 2 3 2 3 2
11 12 13 12 10 10 9 10 10 8 6 5 4 3 2 2 2 2 3 2 1 1 1 2 2 1 1 1 1 2 2 2 2 2 3 2 2 2 2 2 3 2 2
11 11 11 11 10 10 9 9 10 8 7 6 4 3 3 3 3 3 2 2 1 1 2 2 2 2 2 2 2 2 2 2 2 3 3 3 3 3 3 2 2 2 2
10 11 11 11 11 10 9 9 9 8 7 6 5 4 4 3 2 2 2 2 1 1 2 2 3 3 3 2 1 1 2 1 2 2 3 3 4 3 3 2 3 2 2
9 10 11 11 10 9 9 8 9 7 6 5 5 5 4 3 2 2 1 1 1 2 1 0 1 2 1 1 1 2 1 2 2 2 3 3 4 3 3 2 2 2 2
7 8 8 8 8 8 9 9 8 7 6 6 5 3 4 3 3 2 1 1 1 1 1 1 2 2 2 2 2 2 2 2 2 3 2 3 3 4 4 3 2 2 2
6 8 8 7 7 7 7 7 7 7 6 6 5 4 4 3 3 3 2 2 2 2 2 2 2 3 2 2 2 3 2 2 3 2 2 3 3 3 3 4 3 3 2
6 7 7 6 6 6 5 7 6 6 7 6 5 4 4 3 3 2 2 2 2 3 3 3 2 2 2 2 3 3 3 3 3 2 2 2 3 3 3 4 3 3 3
5 6 7 6 5 5 5 4 4 4 4 4 5 4 3 3 2 2 2 2 2 2 2 3 3 3 2 2 3 2 3 3 3 2 1 2 1 2 4 4 4 3 3
3 4 5 5 6 6 5 4 3 3 3 3 4 4 4 3 2 2 2 1 1 2 2 3 3 3 3 2 1 2 3 3 3 2 1 1 0 1 2 3 3 3 2
2 3 4 5 5 5 5 4 3 3 2 3 3 3 3 3 2 2 2 2 2 2 2 3 3 3 3 2 1 2 3 3 3 2 1 1 1 1 0 2 3 2 2
1 2 2 2 4 4 4 5 4 3 3 2 2 3 3 3 3 3 2 2 2 2 3 3 3 3 2 2 2 3 3 3 2 2 1 2 1 1 1 1 1 2 2
1 1 0 0 3 4 4 3 3 3 3 3 2 2 3 3 3 3 3 3 2 3 3 3 3 3 3 3 3 3 3 3 2 2 3 2 1 2 1 2 2 2 2
2 2 0 1 1 3 3 2 3 3 3 3 3 3 3 3 3 3 3 3 3 4 3 3 3 3 3 4 4 3 3 3 3 3 2 2 2 2 2 2 2 2 2
1 2 1 0 1 2 3 3 3 3 3 3 3 3 3 3 4 4 3 3 3 3 3 3 3 4 3 4 5 4 3 3 3 2 2 2 2 3 2 3 3 3 3
2 2 1 0 1 2 3 3 2 3 3 2 3 3 3 3 4 3 3 3 3 3 3 3 3 3 4 4 4 4 3 3 3 2 2 1 0 2 3 3 3 4 4
2 1 1 0 1 2 3 3 3 3 2 2 3 3 3 4 3 3 3 3 3 4 4 4 3 2 2 1 1 3 5 5 4 3 2 1 1 2 3 3 5 6 5
1 1 1 0 1 2 2 3 2 2 2 2 2 2 2 3 3 3 3 3 3 4 3 2 1 0 1 1 1 1 3 4 3 3 3 4 4 3 3 4 6 5 3
2 2 2 2 2 1 1 2 2 2 2 2 1 2 2 2 1 2 3 2 2 2 1 1 1 0 1 1 1 1 2 2 2 2 3 4 6 5 5 4 3 3 2
4 2 2 1 1 1 1 1 1 2 2 2 2 2 2 2 1 1 2 1 2 1 1 1 1 1 0 1 1 1 1 1 1 1 2 2 2 2 2 2 2 2 2
4 3 2 1 2 2 1 1 0 1 2 2 2 2 2 1 1 1 2 5 3 4 4 3 2 2 2 2 2 2 1 1 1 1 3 3 2 3 2 2 2 2 1
Wind_Direction
154 151 151 149 146 139 138 139 143 139 140 134 146 154 149 155 142 138 126 120 143 160 191 124 195 192 188 170 159 171 229 239 235 260 267 247 217 195 194 197 195 198 195
150 149 156 158 153 149 149 146 155 156 160 153 167 175 173 167 149 115 113 133 160 174 187 164 221 212 178 166 188 220 241 258 235 241 289 293 268 279 211 184 199 212 199
157 157 167 164 160 157 158 162 159 156 167 174 179 165 151 164 115 131 143 160 169 167 228 138 269 279 184 179 197 226 229 256 257 234 238 279 289 311 277 226 209 209 219
160 163 168 168 167 164 163 155 152 154 163 177 193 190 175 172 174 145 133 151 206 198 189 145 184 304 306 204 228 202 253 258 270 269 263 247 254 285 304 300 242 215 228
166 166 165 166 168 167 163 157 150 155 162 184 201 212 207 190 153 128 138 179 191 195 170 162 178 240 265 240 249 235 273 269 273 284 265 260 237 237 247 274 280 262 232
163 159 158 159 164 165 163 155 148 155 167 183 194 186 228 240 127 166 177 208 193 183 180 183 194 235 256 253 247 237 239 264 293 305 293 268 268 268 256 257 259 265 262
158 155 157 160 163 164 161 154 153 163 173 181 190 181 208 217 202 225 225 227 220 186 177 193 178 215 234 245 231 233 249 251 268 283 288 296 289 281 276 278 275 273 269
159 157 158 157 160 162 159 155 156 166 173 178 186 183 191 217 220 221 252 246 262 196 168 173 179 205 229 247 217 244 236 236 249 271 283 295 292 288 280 263 267 275 269
147 153 155 159 161 163 159 159 156 165 175 181 178 182 194 226 240 211 235 265 264 237 159 174 193 203 215 243 216 235 252 233 242 265 271 265 277 281 278 279 265 239 259
147 156 159 161 162 163 157 153 152 163 169 174 187 187 191 200 224 261 238 291 333 340 354 289 243 223 216 225 232 254 238 233 250 255 283 286 291 301 293 288 288 265 251
147 146 146 151 157 159 156 157 155 160 171 180 187 184 175 184 196 216 245 245 278 280 285 292 283 251 224 223 223 242 242 234 253 269 276 280 289 304 309 305 296 277 254
135 136 144 150 154 154 153 152 159 166 173 175 172 171 173 183 198 205 219 224 233 245 242 244 260 260 244 229 229 240 250 234 240 254 279 292 295 300 308 308 300 288 275
125 133 139 140 145 144 145 151 161 171 174 171 172 173 184 190 203 208 215 223 235 234 239 241 234 247 258 254 245 237 249 254 259 256 261 281 296 310 312 310 308 307 301
116 127 132 130 137 136 132 140 154 159 165 163 170 173 185 190 197 205 216 212 219 214 227 252 245 238 243 268 276 257 248 257 263 261 269 284 287 303 307 305 309 305 301
115 117 126 130 140 136 138 143 154 157 160 166 173 176 182 178 188 204 212 207 215 226 232 249 253 247 235 250 257 277 260 255 257 253 250 272 102 35 350 317 323 320 313
102 110 121 131 139 143 150 155 160 157 158 176 181 170 176 177 193 216 208 209 216 229 234 234 245 251 256 262 231 237 268 264 254 253 264 243 184 116 43 327 333 334 308
107 87 66 126 147 151 156 163 162 164 171 188 184 169 176 184 201 222 215 232 234 233 239 240 245 244 243 270 290 257 259 256 265 260 254 273 270 196 226 257 280 313 296
75 89 67 194 167 158 155 161 164 166 180 191 197 186 193 203 207 217 225 232 236 238 237 234 237 241 242 242 241 242 235 242 242 238 232 242 247 288 286 275 288 285 304
95 91 89 241 171 151 148 157 179 182 197 201 203 207 204 211 217 222 236 243 242 240 237 233 233 233 239 244 240 228 231 237 243 238 241 222 211 263 246 240 255 267 281
77 71 63 50 114 135 155 177 203 203 215 210 215 220 213 214 220 221 231 232 237 240 240 240 237 230 233 232 228 227 238 243 248 231 222 211 224 251 240 240 247 253 261
50 62 55 62 128 149 166 181 205 222 234 227 217 217 216 224 223 217 220 224 233 239 237 236 246 234 225 216 217 225 240 245 253 246 242 242 228 255 270 266 257 258 267
41 7 4 60 136 168 180 188 204 220 227 222 222 218 215 229 225 215 227 225 228 233 234 232 240 234 202 170 225 242 247 255 251 256 255 250 242 285 288 274 266 273 266
8 337 336 348 152 182 195 202 193 181 205 215 216 217 211 222 202 212 228 224 227 238 234 209 220 245 101 74 30 259 267 272 260 275 276 281 277 272 270 255 264 266 253
342 349 353 24 25 41 195 197 168 169 185 191 208 210 211 220 202 224 237 245 259 269 293 297 284 59 89 51 9 333 314 309 297 299 301 299 283 272 261 264 262 247 250
345 355 5 20 353 356 42 39 138 157 174 187 199 207 221 214 168 101 29 25 33 22 335 321 338 332 333 9 349 287 290 298 297 289 274 266 263 261 258 258 267 263 249
347 348 1 2 360 350 351 34 91 169 172 197 210 218 215 195 193 169 94 51 59 59 56 54 59 41 90 112 29 358 305 255 228 257 258 254 253 266 267 261 257 269 267
Height
1508 1511 1514 1516 1517 1519 1520 1521 1522 1524 1524 1526 1527 1528 1529 1529 1530 1531 1532 1532 1532 1532 1533 1533 1533 1534 1534 1534 1535 1535 1535 1535 1535 1535 1535 1535 1534 1534 1534 1534 1534 1534 1534
1506 1510 1513 1515 1517 1518 1519 1520 1522 1523 1524 1526 1527 1528 1529 1529 1530 1531 1531 1532 1532 1533 1533 1533 1533 1533 1533 1533 1533 1534 1534 1534 1535 1535 1534 1534 1534 1533 1533 1533 1533 1533 1533
1503 1507 1511 1514 1516 1517 1518 1520 1521 1523 1524 1526 1527 1528 1529 1529 1530 1530 1531 1531 1532 1532 1532 1532 1532 1532 1532 1532 1532 1533 1533 1533 1534 1534 1534 1533 1532 1532 1533 1533 1532 1532 1532
1501 1505 1508 1512 1514 1516 1517 1519 1520 1522 1523 1525 1526 1527 1528 1529 1529 1530 1530 1531 1531 1532 1531 1531 1531 1531 1531 1531 1531 1531 1532 1532 1532 1533 1533 1533 1532 1532 1531 1532 1531 1531 1530
1497 1502 1506 1509 1512 1515 1517 1518 1519 1521 1522 1524 1525 1526 1527 1528 1529 1529 1530 1530 1531 1531 1530 1530 1530 1530 1530 1530 1530 1530 1530 1530 1531 1531 1531 1531 1531 1530 1530 1529 1529 1529 1528
1495 1499 1503 1507 1511 1514 1516 1517 1518 1520 1521 1523 1524 1525 1526 1527 1528 1528 1528 1529 1529 1529 1529 1529 1529 1529 1529 1529 1528 1528 1528 1528 1529 1529 1529 1529 1529 1529 1529 1528 1527 1526 1526
1492 1497 1501 1505 1509 1512 1514 1515 1517 1518 1520 1521 1522 1524 1525 1526 1526 1527 1527 1528 1528 1528 1528 1528 1528 1528 1527 1527 1527 1527 1527 1526 1527 1527 1527 1527 1527 1527 1527 1526 1525 1525 1524
1490 1495 1499 1503 1507 1510 1512 1514 1515 1517 1518 1519 1521 1522 1523 1524 1525 1526 1526 1527 1527 1527 1527 1527 1526 1526 1526 1525 1525 1525 1525 1525 1525 1525 1525 1525 1525 1525 1525 1524 1524 1522 1522
1489 1493 1498 1501 1505 1508 1510 1512 1514 1515 1517 1518 1519 1520 1522 1523 1524 1524 1525 1525 1525 1525 1525 1525 1524 1524 1524 1524 1524 1523 1523 1523 1523 1523 1523 1523 1523 1523 1522 1522 1522 1522 1520
1488 1492 1496 1499 1503 1506 1508 1511 1512 1514 1515 1517 1518 1519 1520 1521 1522 1522 1523 1523 1523 1523 1523 1523 1523 1522 1522 1522 1522 1521 1521 1521 1521 1521 1521 1521 1520 1520 1520 1520 1519 1519 1518
1487 1491 1495 1499 1502 1505 1507 1509 1511 1512 1514 1515 1516 1518 1518 1519 1520 1520 1520 1520 1520 1521 1521 1521 1521 1521 1520 1520 1520 1520 1519 1519 1519 1519 1518 1518 1518 1518 1517 1517 1517 1516 1516
1488 1490 1494 1497 1501 1503 1505 1507 1509 1511 1512 1513 1514 1515 1516 1517 1517 1517 1518 1518 1517 1517 1518 1518 1518 1519 1518 1518 1518 1518 1517 1517 1517 1516 1516 1516 1515 1515 1514 1514 1514 1513 1513
1488 1491 1494 1497 1500 1502 1504 1506 1508 1510 1511 1512 1513 1513 1514 1515 1515 1515 1515 1515 1514 1514 1515 1515 1515 1516 1516 1516 1516 1515 1515 1515 1514 1514 1514 1513 1513 1512 1512 1511 1511 1510 1510
1488 1491 1493 1496 1499 1501 1503 1504 1506 1508 1509 1510 1511 1511 1512 1512 1513 1513 1513 1513 1512 1512 1512 1513 1513 1514 1514 1514 1513 1513 1513 1513 1512 1512 1511 1511 1510 1509 1509 1509 1508 1508 1507
1489 1491 1493 1495 1497 1500 1501 1503 1504 1506 1507 1508 1509 1509 1510 1510 1511 1511 1511 1511 1511 1511 1511 1510 1511 1511 1511 1511 1511 1511 1511 1510 1510 1509 1509 1508 1508 1507 1507 1506 1505 1505 1504
1489 1492 1493 1495 1496 1498 1499 1501 1502 1504 1505 1506 1506 1507 1508 1508 1509 1509 1509 1509 1509 1509 1509 1508 1508 1509 1509 1509 1509 1508 1508 1508 1507 1507 1506 1505 1505 1504 1504 1504 1503 1503 1502
1490 1492 1493 1494 1495 1496 1497 1499 1500 1502 1503 1503 1504 1505 1505 1506 1506 1507 1507 1506 1506 1506 1506 1506 1506 1506 1506 1506 1506 1505 1505 1505 1504 1503 1503 1503 1502 1501 1501 1500 1500 1500 1499
1489 1491 1492 1493 1494 1495 1496 1497 1499 1499 1500 1501 1502 1502 1503 1503 1504 1504 1504 1504 1504 1503 1503 1503 1503 1503 1503 1503 1502 1502 1502 1502 1501 1500 1500 1500 1499 1499 1498 1497 1497 1496 1495
1488 1489 1490 1491 1492 1493 1494 1495 1496 1497 1498 1498 1499 1500 1500 1500 1501 1501 1501 1501 1501 1500 1500 1500 1500 1499 1499 1499 1499 1499 1499 1498 1498 1497 1497 1497 1496 1495 1495 1495 1494 1493 1492
1486 1487 1488 1489 1490 1490 1491 1492 1493 1494 1494 1495 1496 1497 1497 1497 1497 1498 1498 1498 1498 1498 1497 1497 1497 1496 1496 1496 1496 1496 1496 1495 1494 1494 1494 1494 1493 1492 1492 1492 1491 1490 1489
1484 1485 1486 1487 1488 1488 1489 1490 1490 1491 1491 1492 1493 1493 1494 1494 1494 1495 1495 1495 1495 1495 1494 1494 1493 1493 1493 1493 1493 1493 1492 1491 1491 1490 1490 1490 1490 1490 1489 1489 1488 1487 1487
1483 1484 1485 1485 1485 1486 1486 1486 1487 1487 1488 1489 1490 1490 1491 1491 1492 1492 1492 1492 1492 1492 1491 1491 1491 1490 1490 1490 1489 1489 1489 1489 1488 1487 1487 1487 1487 1487 1486 1486 1485 1484 1484
1483 1483 1484 1483 1483 1484 1484 1484 1484 1485 1485 1486 1487 1487 1488 1488 1489 1489 1489 1489 1489 1489 1489 1489 1489 1488 1487 1486 1486 1486 1486 1485 1485 1484 1484 1484 1484 1483 1482 1482 1481 1481 1481
1482 1482 1482 1481 1481 1481 1481 1481 1481 1482 1482 1483 1484 1484 1485 1485 1486 1486 1487 1487 1487 1487 1487 1486 1486 1486 1484 1484 1483 1482 1482 1482 1481 1481 1481 1480 1480 1479 1478 1478 1478 1478 1478
1482 1481 1481 1480 1480 1480 1479 1479 1480 1480 1480 1481 1481 1482 1483 1483 1482 1483 1484 1484 1484 1485 1484 1484 1483 1482 1482 1481 1480 1479 1479 1478 1479 1478 1478 1477 1477 1477 1476 1476 1476 1475 1475
1479 1479 1478 1478 1478 1478 1477 1477 1477 1477 1478 1478 1479 1480 1481 1480 1481 1481 1481 1481 1481 1481 1481 1481 1481 1480 1480 1478 1477 1477 1476 1476 1476 1475 1475 1475 1475 1474 1474 1473 1473 1473 1472